Hourly Data Report for September 13, 2017

All times are specified in Local Standard Time (LST). Add 1 hour to adjust for Daylight Saving Time where and when it is observed.

QIKIQTARJUAQ A
NUNAVUT

67°32'48.000" N
64°01'54.000" W
5.50 m
2400577
YVM

Download Data

Hourly Data (September 2017)
Hourly Data Report for September 13, 2017
Temp Definition
°C
Dew Point Temp Definition
°C
Rel Hum Definition
%
Wind Dir Definition
10's deg

Wind Spd Definition
km/h
Visibility Definition
km
Stn Press Definition
kPa
Hmdx Definition


Wind Chill Definition


Weather Definition


TIME
00:00 Legend Double Dagger 1.2 -0.4 89 12 34 12.9 100.67     Snow
01:00 Legend Double Dagger 1.0 -0.2 92 11 24 4.8 100.72     Snow
02:00 Legend Double Dagger 1.1 -0.1 92 12 39 14.5 100.66     Rain
03:00 Legend Double Dagger 1.4 -0.4 88 12 22 8.1 100.73     Snow
04:00 Legend Double Dagger 1.3 0.1 92 LegendMM 11 14.5 100.79     Rain
05:00 Legend Double Dagger 1.4 0.1 91 4 5 6.4 100.80     Rain,Fog
06:00 Legend Double Dagger 1.5 -0.1 89 6 15 8.1 100.82     Rain,Fog
07:00 Legend Double Dagger 0.8 0.2 96 5 11 14.5 100.85     Rain
08:00 Legend Double Dagger 1.2 0.1 92 7 18 14.5 100.85     Rain
09:00 Legend Double Dagger 1.0 0.1 94 7 18 8.1 100.85     Snow
10:00 Legend Double Dagger 0.9 0.3 96 1 11 3.2 100.88     Snow
11:00 Legend Double Dagger 0.8 0.5 98 36 11 2.0 100.89     Snow
12:00 Legend Double Dagger 0.7 0.6 99 35 21 2.8 100.88     Snow
13:00 Legend Double Dagger 0.9 0.6 98 35 21 4.0 100.90     Snow
14:00 Legend Double Dagger 1.1 0.8 98 36 21 12.9 100.92     Rain
15:00 Legend Double Dagger 1.0 0.9 99 35 22 8.1 100.93     Snow
16:00 Legend Double Dagger 1.0 0.9 99 35 22 4.8 100.96     Snow
17:00 Legend Double Dagger 1.2 0.9 98 34 15 3.6 100.97     Rain,Fog
18:00 Legend Double Dagger 1.1 0.8 98 36 18 4.8 101.00     Rain,Fog
19:00 Legend Double Dagger 1.6 1.2 97 33 18 4.0 100.99     Fog
20:00 Legend Double Dagger 1.7 1.3 97 34 22 11.3 101.00     LegendNANA
21:00 Legend Double Dagger 1.8 1.1 95 33 18 16.1 100.97     LegendNANA
22:00 Legend Double Dagger 1.6 1.2 97 35 17 4.8 100.96     Rain,Fog
23:00 Legend Double Dagger 2.0 1.0 93 34 15 16.1 100.91     Rain

Notes on Data Quality.

Legend

  • E = Estimated
  • M = Missing
  • NA = Not Available
  • ‡ = Partner data that is not subject to review by the National Climate Archives
Date modified: